Location: ?????
(30.2541°N, 31.0910°E)
Time: 07:39:41
(UTC+00:00)

Cosmos 2100 Rocket - Pass Details

Date: 27 September 2022
Orbit: 956 x 1000 km, 82.9° (Epoch: 28 November)

Event Time Altitude Azimuth Distance (km) Brightness Sun altitude
Rises 02:22:42 0° 186° (S) 3,631 6.8 -18.9°
Reaches altitude 10° 02:25:12 10° 187° (S) 2,684 6.1 -18.4°
Maximum altitude 02:31:20 82° 275° (W) 969 3.9 -17.0°
Drops below altitude 10° 02:37:29 10° 3° (N) 2,689 6.4 -15.7°
Sets 02:40:00 0° 5° (N) 3,639 7.2 -15.2°
